#�ϑ�����,���ϕ���,���ϕ���,�ő啗��,�ő啗����������,�ő�u�ԕ���,�ő�u�ԕ�����������
#(�N����),(m/s)   ,(16����),(m/s)   ,(16����)        ,(m/s)       ,(16����)            
2018/7/2 0:01,3.2,4,3.3,4,4.9,3
2018/7/2 0:02,3.2,4,3.2,4,3.7,5
2018/7/2 0:03,3.2,4,3.2,4,5.4,4
2018/7/2 0:04,3,4,3.2,4,5.2,6
2018/7/2 0:05,3,4,3,4,5.7,4
2018/7/2 0:06,3,4,3,4,5.5,4
2018/7/2 0:07,3.2,4,3.2,4,5.1,5
2018/7/2 0:08,3.2,4,3.2,4,6.2,4
2018/7/2 0:09,3.3,4,3.3,4,5.6,5
2018/7/2 0:10,3.4,4,3.4,4,5.5,5
2018/7/2 0:11,3.6,4,3.6,4,6.1,6
2018/7/2 0:12,3.6,5,3.6,4,3.5,6
2018/7/2 0:13,3.4,4,3.6,4,3,3
2018/7/2 0:14,3.3,4,3.4,4,3,4
2018/7/2 0:15,3.3,4,3.3,4,4.1,5
2018/7/2 0:16,3.2,5,3.3,4,3.7,6
2018/7/2 0:17,3,5,3.2,4,3.8,3
2018/7/2 0:18,2.9,5,3,4,3.7,4
2018/7/2 0:19,2.8,4,2.9,4,3.5,5
2018/7/2 0:20,2.6,4,2.8,4,3.7,4
2018/7/2 0:21,2.5,4,2.6,4,3.5,3
2018/7/2 0:22,2.4,4,2.5,5,3,3
2018/7/2 0:23,2.6,4,2.6,4,4.8,4
2018/7/2 0:24,2.7,4,2.7,4,3.7,4
2018/7/2 0:25,2.6,4,2.7,4,3.3,3
2018/7/2 0:26,2.5,4,2.6,5,2.9,2
2018/7/2 0:27,2.5,4,2.5,5,3.3,4
2018/7/2 0:28,2.4,4,2.5,5,3.5,3
2018/7/2 0:29,2.4,4,2.4,4,2.7,2
2018/7/2 0:30,2.4,4,2.4,4,3.2,3
2018/7/2 0:31,2.3,3,2.3,4,3.1,3
2018/7/2 0:32,2.3,3,2.3,4,3.7,4
2018/7/2 0:33,2.2,3,2.3,4,2.7,3
2018/7/2 0:34,2.2,3,2.2,4,3.7,4
2018/7/2 0:35,2.1,3,2.2,4,2.2,3
2018/7/2 0:36,2.1,3,2.1,4,3.3,3
2018/7/2 0:37,2.1,3,2.1,4,2.4,4
2018/7/2 0:38,2,3,2.1,4,2,3
2018/7/2 0:39,1.9,3,2,4,3.3,3
2018/7/2 0:40,1.8,3,1.9,4,3,3
2018/7/2 0:41,1.9,3,1.9,3,3.5,3
2018/7/2 0:42,1.7,3,1.9,3,2.4,3
2018/7/2 0:43,1.7,3,1.7,3,3.2,2
2018/7/2 0:44,1.6,2,1.7,3,3,1
2018/7/2 0:45,1.6,2,1.6,3,3.1,2
2018/7/2 0:46,1.6,2,1.7,3,3.1,3
2018/7/2 0:47,1.7,2,1.7,3,3.1,3
2018/7/2 0:48,1.8,2,1.8,3,3,2
2018/7/2 0:49,1.8,2,1.8,3,2.7,1
2018/7/2 0:50,1.9,2,1.9,3,3.2,3
2018/7/2 0:51,1.9,2,1.9,3,2.9,3
2018/7/2 0:52,2,2,2,2,3.7,3
2018/7/2 0:53,2,2,2.1,2,3.3,2
2018/7/2 0:54,2.1,2,2.1,2,3.5,3
2018/7/2 0:55,2.1,3,2.1,2,3.5,3
2018/7/2 0:56,2.1,3,2.1,2,2.2,2
2018/7/2 0:57,2.1,3,2.1,2,3.3,3
2018/7/2 0:58,2.1,3,2.1,2,2.9,3
2018/7/2 0:59,2.1,3,2.1,2,3,2
2018/7/2 1:00,2.1,3,2.1,2,3.6,3
2018/7/2 1:01,2.1,3,2.1,2,3.6,2
2018/7/2 1:02,2,3,2.1,2,3.1,3
2018/7/2 1:03,1.9,3,1.9,2,2.5,3
2018/7/2 1:04,1.9,3,1.9,2,3.5,3
2018/7/2 1:05,1.9,3,1.9,3,3.5,3
2018/7/2 1:06,2,3,2,3,3.1,3
2018/7/2 1:07,1.9,3,2,3,2.6,3
2018/7/2 1:08,1.9,3,1.9,3,3,3
2018/7/2 1:09,1.9,3,1.9,3,2.9,3
2018/7/2 1:10,1.9,3,1.9,3,2.6,3
2018/7/2 1:11,1.9,3,1.9,3,2.1,5
2018/7/2 1:12,1.8,3,1.8,3,2.5,4
2018/7/2 1:13,1.8,3,1.9,3,2,5
2018/7/2 1:14,1.6,3,1.8,3,1.8,3
2018/7/2 1:15,1.5,3,1.6,3,2,3
2018/7/2 1:16,1.5,3,1.5,3,2.4,2
2018/7/2 1:17,1.6,3,1.6,3,3.8,4
2018/7/2 1:18,1.5,3,1.6,3,2.7,2
2018/7/2 1:19,1.6,3,1.6,3,3.3,3
2018/7/2 1:20,1.6,3,1.7,3,3.5,4
2018/7/2 1:21,1.7,3,1.7,3,3.2,3
2018/7/2 1:22,1.8,3,1.8,3,3.5,2
2018/7/2 1:23,2,3,2,3,3.2,3
2018/7/2 1:24,2.2,3,2.2,3,3.9,3
2018/7/2 1:25,2.3,3,2.3,3,4.3,3
2018/7/2 1:26,2.4,3,2.4,3,3,3
2018/7/2 1:27,2.4,3,2.4,3,3.3,3
2018/7/2 1:28,2.4,3,2.4,3,3.2,3
2018/7/2 1:29,2.3,3,2.4,3,3.1,2
2018/7/2 1:30,2.2,3,2.3,3,1.9,2
2018/7/2 1:31,2.2,3,2.2,3,3.1,3
2018/7/2 1:32,2.1,3,2.2,3,2.9,3
2018/7/2 1:33,2.1,3,2.1,3,2.2,3
2018/7/2 1:34,1.9,3,2,3,2.6,3
2018/7/2 1:35,1.9,3,1.9,3,2.7,3
2018/7/2 1:36,1.8,3,1.9,3,3,3
2018/7/2 1:37,1.7,3,1.8,3,2.2,4
2018/7/2 1:38,1.6,3,1.6,3,2.2,2
2018/7/2 1:39,1.6,3,1.6,3,2.4,2
2018/7/2 1:40,1.6,3,1.6,3,2.5,3
2018/7/2 1:41,1.6,3,1.6,3,2.5,3
2018/7/2 1:42,1.7,2,1.7,3,3.7,2
2018/7/2 1:43,1.6,2,1.6,3,2.2,3
2018/7/2 1:44,1.5,2,1.6,3,1.8,4
2018/7/2 1:45,1.5,2,1.5,3,2.5,3
2018/7/2 1:46,1.5,2,1.5,3,3.8,4
2018/7/2 1:47,1.7,3,1.7,2,3.2,3
2018/7/2 1:48,1.7,3,1.7,2,2.5,3
2018/7/2 1:49,1.7,3,1.7,2,2.5,3
2018/7/2 1:50,1.8,3,1.8,3,3.7,4
2018/7/2 1:51,1.8,3,1.8,3,4.7,3
2018/7/2 1:52,1.8,3,1.8,3,3.5,3
2018/7/2 1:53,1.9,3,1.9,3,3.9,2
2018/7/2 1:54,2,3,2,2,2.7,3
2018/7/2 1:55,2.1,3,2.1,3,3.6,3
2018/7/2 1:56,2.2,3,2.2,3,4.1,3
2018/7/2 1:57,2.2,2,2.2,3,3.6,3
2018/7/2 1:58,2.2,3,2.2,3,4.1,3
2018/7/2 1:59,2.3,3,2.3,3,3.9,3
2018/7/2 2:00,2.3,3,2.4,3,3.3,3
2018/7/2 2:01,2.3,2,2.3,3,3,3
2018/7/2 2:02,2.4,3,2.4,3,4.1,3
2018/7/2 2:03,2.4,3,2.4,3,4.3,3
2018/7/2 2:04,2.4,3,2.4,3,3.5,3
2018/7/2 2:05,2.3,3,2.4,3,3.6,3
2018/7/2 2:06,2.3,3,2.3,3,3.7,3
2018/7/2 2:07,2.3,3,2.3,3,3.8,3
2018/7/2 2:08,2.3,3,2.3,3,3.9,3
2018/7/2 2:09,2.2,2,2.3,3,2.4,3
2018/7/2 2:10,2.2,2,2.2,3,4.7,3
2018/7/2 2:11,2.3,3,2.3,3,4.1,3
2018/7/2 2:12,2.2,3,2.3,3,3.1,3
2018/7/2 2:13,2.2,2,2.2,3,3.3,3
2018/7/2 2:14,2.2,2,2.2,3,4.1,2
2018/7/2 2:15,2.1,2,2.2,3,3.1,3
2018/7/2 2:16,2.1,2,2.2,3,2.4,4
2018/7/2 2:17,2.1,2,2.1,3,3.5,3
2018/7/2 2:18,2.1,2,2.1,3,3.8,4
2018/7/2 2:19,2.2,2,2.2,2,3.5,3
2018/7/2 2:20,2.1,2,2.2,2,2.7,2
2018/7/2 2:21,2,2,2.1,3,2.7,2
2018/7/2 2:22,2,2,2,3,2.6,4
2018/7/2 2:23,2,2,2,2,2.7,3
2018/7/2 2:24,1.9,2,2,2,2.2,2
2018/7/2 2:25,1.9,2,1.9,2,2.5,4
2018/7/2 2:26,1.9,2,1.9,2,2.7,2
2018/7/2 2:27,1.8,2,1.9,2,3,3
2018/7/2 2:28,1.8,2,1.9,2,2.4,2
2018/7/2 2:29,1.7,2,1.8,2,2.6,3
2018/7/2 2:30,1.7,2,1.7,2,2.6,2
2018/7/2 2:31,1.7,2,1.7,2,3,3
2018/7/2 2:32,1.7,2,1.7,2,3.1,2
2018/7/2 2:33,1.7,2,1.7,2,2.7,3
2018/7/2 2:34,1.8,2,1.8,2,3.2,3
2018/7/2 2:35,1.8,2,1.8,2,2.5,4
2018/7/2 2:36,1.7,2,1.8,2,1.9,16
2018/7/2 2:37,1.7,3,1.8,2,2.6,3
2018/7/2 2:38,1.7,3,1.7,2,3.1,3
2018/7/2 2:39,1.7,3,1.7,2,2.2,3
2018/7/2 2:40,1.7,3,1.7,2,2.2,4
2018/7/2 2:41,1.6,3,1.7,2,1.4,3
2018/7/2 2:42,1.5,3,1.6,2,1.4,5
2018/7/2 2:43,1.4,3,1.5,2,1.1,2
2018/7/2 2:44,1.2,3,1.4,2,1.6,3
2018/7/2 2:45,1.3,3,1.3,2,2.2,4
2018/7/2 2:46,1.4,4,1.4,2,3,4
2018/7/2 2:47,1.5,4,1.5,3,3.3,3
2018/7/2 2:48,1.4,4,1.5,3,3.1,4
2018/7/2 2:49,1.5,4,1.5,3,2.4,5
2018/7/2 2:50,1.5,4,1.5,3,2.6,5
2018/7/2 2:51,1.6,4,1.6,3,1.8,3
2018/7/2 2:52,1.6,4,1.6,4,2,3
2018/7/2 2:53,1.6,4,1.6,4,1.9,5
2018/7/2 2:54,1.6,4,1.6,4,1.8,5
2018/7/2 2:55,1.5,4,1.6,4,2.1,3
2018/7/2 2:56,1.4,4,1.5,4,1.4,4
2018/7/2 2:57,1.4,4,1.4,4,3,5
2018/7/2 2:58,1.5,4,1.5,4,3.9,4
2018/7/2 2:59,1.5,4,1.5,4,2.9,4
2018/7/2 3:00,1.5,4,1.5,4,2.7,5
2018/7/2 3:01,1.5,4,1.6,4,3.1,3
2018/7/2 3:02,1.6,4,1.6,4,2.7,5
2018/7/2 3:03,1.7,4,1.7,4,3.3,4
2018/7/2 3:04,1.8,4,1.8,4,2.6,6
2018/7/2 3:05,1.8,4,1.8,4,1.6,5
2018/7/2 3:06,1.8,4,1.8,4,1.8,4
2018/7/2 3:07,1.8,4,1.8,4,2.4,4
2018/7/2 3:08,1.7,4,1.8,4,2.7,4
2018/7/2 3:09,1.7,5,1.8,4,3.9,5
2018/7/2 3:10,1.7,5,1.8,4,2.5,6
2018/7/2 3:11,1.7,5,1.7,4,1.8,4
2018/7/2 3:12,1.6,5,1.7,4,2.5,3
2018/7/2 3:13,1.5,5,1.6,4,1.1,6
2018/7/2 3:14,1.4,5,1.5,4,1,4
2018/7/2 3:15,1.4,5,1.4,4,2.5,6
2018/7/2 3:16,1.4,5,1.4,4,2.2,6
2018/7/2 3:17,1.3,5,1.4,4,1.6,5
2018/7/2 3:18,1.2,5,1.3,4,1.5,6
2018/7/2 3:19,1.2,5,1.2,5,3.6,8
2018/7/2 3:20,1.2,5,1.2,5,2.1,4
2018/7/2 3:21,1.2,5,1.2,5,3.3,7
2018/7/2 3:22,1.2,5,1.2,5,3.7,7
2018/7/2 3:23,1.4,5,1.4,5,3,7
2018/7/2 3:24,1.5,5,1.5,5,3.2,4
2018/7/2 3:25,1.4,6,1.5,5,1.5,9
2018/7/2 3:26,1.5,6,1.5,5,3.1,6
2018/7/2 3:27,1.6,6,1.6,6,3.3,6
2018/7/2 3:28,1.6,6,1.6,6,2.5,5
2018/7/2 3:29,1.6,6,1.6,6,2.1,5
2018/7/2 3:30,1.5,6,1.6,6,1.9,5
2018/7/2 3:31,1.4,6,1.5,6,1.1,6
2018/7/2 3:32,1.3,6,1.4,6,2.5,8
2018/7/2 3:33,1.2,6,1.3,6,1.4,6
2018/7/2 3:34,1.3,6,1.3,6,3.9,6
2018/7/2 3:35,1.4,6,1.4,6,3.7,5
2018/7/2 3:36,1.4,6,1.4,6,2.7,6
2018/7/2 3:37,1.2,6,1.4,6,1.5,4
2018/7/2 3:38,1.3,6,1.3,6,3.3,6
2018/7/2 3:39,1.3,6,1.3,6,3.1,6
2018/7/2 3:40,1.4,6,1.4,6,2,6
2018/7/2 3:41,1.4,6,1.4,6,1.8,4
2018/7/2 3:42,1.4,6,1.4,6,2.5,7
2018/7/2 3:43,1.5,6,1.5,6,1.9,5
2018/7/2 3:44,1.4,6,1.5,6,2,5
2018/7/2 3:45,1.3,6,1.4,6,2,6
2018/7/2 3:46,1.4,5,1.4,6,3.8,4
2018/7/2 3:47,1.5,5,1.5,6,3.6,6
2018/7/2 3:48,1.5,5,1.5,6,2.9,7
2018/7/2 3:49,1.5,5,1.5,6,2.7,6
2018/7/2 3:50,1.5,5,1.5,6,2.5,5
2018/7/2 3:51,1.7,5,1.7,5,3.5,6
2018/7/2 3:52,1.7,5,1.7,5,3,6
2018/7/2 3:53,1.8,5,1.8,5,2.9,7
2018/7/2 3:54,1.9,5,1.9,5,3,7
2018/7/2 3:55,1.9,5,1.9,5,3,5
2018/7/2 3:56,1.9,5,2,5,3.5,7
2018/7/2 3:57,2,5,2,5,3.7,5
2018/7/2 3:58,2.1,5,2.1,6,4.7,5
2018/7/2 3:59,2.2,6,2.2,5,4.7,7
2018/7/2 4:00,2.3,6,2.3,6,4.2,7
2018/7/2 4:01,2.3,6,2.4,6,3.9,7
2018/7/2 4:02,2.3,6,2.3,6,2.4,8
2018/7/2 4:03,2.2,6,2.3,6,2.5,6
2018/7/2 4:04,2.2,6,2.2,6,2.1,6
2018/7/2 4:05,2.2,6,2.2,6,6.1,6
2018/7/2 4:06,2.3,6,2.3,6,5.6,6
2018/7/2 4:07,2.2,6,2.3,6,2.2,9
2018/7/2 4:08,2,6,2.1,6,1.8,6
2018/7/2 4:09,1.8,6,2,6,1.3,5
2018/7/2 4:10,1.7,6,1.8,6,4.1,6
2018/7/2 4:11,1.7,6,1.7,6,4.4,7
2018/7/2 4:12,1.8,6,1.8,6,2.6,7
2018/7/2 4:13,1.7,6,1.7,6,1.8,6
2018/7/2 4:14,1.6,6,1.7,6,1.8,8
2018/7/2 4:15,1.5,6,1.7,6,2,6
2018/7/2 4:16,1.4,6,1.5,6,3.2,6
2018/7/2 4:17,1.4,6,1.4,6,2.6,7
2018/7/2 4:18,1.5,6,1.5,6,3.6,6
2018/7/2 4:19,1.7,6,1.7,6,3.2,7
2018/7/2 4:20,1.8,6,1.8,6,3.9,7
2018/7/2 4:21,1.7,6,1.8,6,4.3,7
2018/7/2 4:22,1.7,6,1.7,6,3.9,6
2018/7/2 4:23,1.8,6,1.8,6,2.4,5
2018/7/2 4:24,1.9,6,1.9,6,3,6
2018/7/2 4:25,2.1,6,2.1,6,4.1,6
2018/7/2 4:26,2.1,6,2.1,6,4.1,6
2018/7/2 4:27,2.1,6,2.2,6,3,5
2018/7/2 4:28,2.1,6,2.1,6,3.1,6
2018/7/2 4:29,2.1,6,2.1,6,3.5,5
2018/7/2 4:30,2.2,6,2.2,6,3,6
2018/7/2 4:31,2.1,6,2.1,6,3.7,6
2018/7/2 4:32,2.2,6,2.2,6,3.5,6
2018/7/2 4:33,2.2,6,2.2,6,2.6,8
2018/7/2 4:34,2.1,6,2.2,6,2.4,9
2018/7/2 4:35,1.9,6,2.1,6,2,8
2018/7/2 4:36,1.8,6,1.9,6,2.5,6
2018/7/2 4:37,1.8,6,1.8,6,2.6,5
2018/7/2 4:38,1.9,6,1.9,6,3.9,6
2018/7/2 4:39,1.8,6,1.9,6,2.9,7
2018/7/2 4:40,1.7,6,1.8,6,3.3,8
2018/7/2 4:41,1.7,6,1.7,6,3.1,6
2018/7/2 4:42,1.6,6,1.6,6,2.2,6
2018/7/2 4:43,1.6,6,1.6,6,3.1,5
2018/7/2 4:44,1.8,6,1.8,6,4.7,6
2018/7/2 4:45,2,6,2,6,3.9,6
2018/7/2 4:46,2.1,6,2.1,6,4.8,5
2018/7/2 4:47,2.1,6,2.1,6,4.2,5
2018/7/2 4:48,2.1,6,2.1,6,4.1,5
2018/7/2 4:49,2.2,6,2.2,6,4.3,6
2018/7/2 4:50,2.3,5,2.3,6,3.3,6
2018/7/2 4:51,2.5,5,2.5,5,5.2,5
2018/7/2 4:52,2.6,6,2.6,5,4.4,6
2018/7/2 4:53,2.6,6,2.7,6,2.6,6
2018/7/2 4:54,2.4,6,2.6,6,2,4
2018/7/2 4:55,2.3,6,2.4,6,2.4,5
2018/7/2 4:56,2.2,5,2.3,6,2.5,5
2018/7/2 4:57,2.1,6,2.2,6,2.7,8
2018/7/2 4:58,1.9,6,2.1,6,2.5,7
2018/7/2 4:59,1.9,6,1.9,6,3.5,6
2018/7/2 5:00,2,6,2,6,3.9,5
2018/7/2 5:01,1.8,6,1.9,6,3.7,5
2018/7/2 5:02,1.8,6,1.8,6,4.4,6
2018/7/2 5:03,1.8,6,1.8,6,4.3,6
2018/7/2 5:04,1.9,6,1.9,6,2.5,7
2018/7/2 5:05,1.9,6,1.9,6,4.1,6
2018/7/2 5:06,2,6,2,5,3,6
2018/7/2 5:07,2.1,6,2.1,6,3.8,6
2018/7/2 5:08,2.3,6,2.3,6,4.5,6
2018/7/2 5:09,2.4,6,2.4,6,4.2,4
2018/7/2 5:10,2.4,6,2.4,6,4.3,7
2018/7/2 5:11,2.4,6,2.4,6,2.9,6
2018/7/2 5:12,2.4,6,2.4,6,4.2,6
2018/7/2 5:13,2.4,5,2.4,6,4.2,4
2018/7/2 5:14,2.5,5,2.5,5,4.4,5
2018/7/2 5:15,2.5,5,2.5,5,3.6,6
2018/7/2 5:16,2.5,5,2.5,5,2.5,7
2018/7/2 5:17,2.4,5,2.5,5,2.4,4
2018/7/2 5:18,2.3,5,2.4,5,3.3,6
2018/7/2 5:19,2.2,5,2.3,5,3.7,6
2018/7/2 5:20,2.2,5,2.2,5,4.7,5
2018/7/2 5:21,2.3,5,2.3,5,3.7,6
2018/7/2 5:22,2.3,5,2.3,5,4.5,8
2018/7/2 5:23,2.3,6,2.4,5,3.2,7
2018/7/2 5:24,2.3,6,2.3,5,3.2,6
2018/7/2 5:25,2.2,6,2.3,5,3.5,4
2018/7/2 5:26,2.2,6,2.2,5,3.2,6
2018/7/2 5:27,2.3,6,2.3,5,3.5,6
2018/7/2 5:28,2.5,6,2.5,6,6.1,5
2018/7/2 5:29,2.6,6,2.6,6,5.8,6
2018/7/2 5:30,2.6,6,2.7,6,5,6
2018/7/2 5:31,2.6,6,2.6,6,3.3,7
2018/7/2 5:32,2.3,6,2.6,6,1.6,4
2018/7/2 5:33,2.3,6,2.3,6,3.6,5
2018/7/2 5:34,2.4,6,2.4,6,3.9,5
2018/7/2 5:35,2.4,6,2.4,6,3.3,5
2018/7/2 5:36,2.4,6,2.4,6,2,6
2018/7/2 5:37,2.4,6,2.4,6,3.6,6
2018/7/2 5:38,2.2,6,2.4,6,3.3,6
2018/7/2 5:39,2,6,2.2,6,2.7,6
2018/7/2 5:40,1.8,6,2,6,3.1,7
2018/7/2 5:41,1.7,6,1.8,6,2,9
2018/7/2 5:42,1.7,6,1.7,6,3.1,4
2018/7/2 5:43,1.9,6,1.9,6,4.7,6
2018/7/2 5:44,1.9,6,1.9,6,3.9,5
2018/7/2 5:45,2,6,2,6,5,5
2018/7/2 5:46,2.1,6,2.1,6,4.8,9
2018/7/2 5:47,2.2,6,2.2,6,3.9,5
2018/7/2 5:48,2.1,6,2.1,6,2.6,6
2018/7/2 5:49,2.2,6,2.2,6,2.6,6
2018/7/2 5:50,2.1,6,2.2,6,2.5,7
2018/7/2 5:51,2.2,6,2.2,6,2.2,5
2018/7/2 5:52,2.3,6,2.3,6,3.3,4
2018/7/2 5:53,2.2,6,2.3,6,3.1,6
2018/7/2 5:54,2.2,6,2.2,6,3.5,6
2018/7/2 5:55,2.2,6,2.2,6,4.3,6
2018/7/2 5:56,2.2,6,2.2,6,4.2,5
2018/7/2 5:57,2.1,6,2.1,6,3.1,5
2018/7/2 5:58,2.3,6,2.3,6,5,5
2018/7/2 5:59,2.4,6,2.4,6,4.7,6
2018/7/2 6:00,2.6,6,2.6,6,4.5,7
2018/7/2 6:01,2.7,6,2.7,6,4.5,5
2018/7/2 6:02,2.8,6,2.8,6,4.2,6
2018/7/2 6:03,2.8,6,2.8,6,4.3,6
2018/7/2 6:04,2.7,6,2.8,6,3,6
2018/7/2 6:05,2.6,6,2.7,6,4.4,5
2018/7/2 6:06,2.5,6,2.6,6,2.6,6
2018/7/2 6:07,2.6,6,2.6,6,4.4,8
2018/7/2 6:08,2.5,6,2.6,6,4.8,7
2018/7/2 6:09,2.4,6,2.5,6,4.1,5
2018/7/2 6:10,2.4,6,2.5,6,5.5,6
2018/7/2 6:11,2.4,6,2.4,6,4.4,6
2018/7/2 6:12,2.3,6,2.3,6,3.3,6
2018/7/2 6:13,2.2,6,2.3,6,2.5,6
2018/7/2 6:14,2.1,6,2.2,6,1.6,6
2018/7/2 6:15,2.1,6,2.2,6,3.6,7
2018/7/2 6:16,2.2,6,2.2,6,3,6
2018/7/2 6:17,2,6,2.1,6,3.5,8
2018/7/2 6:18,1.9,6,2,6,3.8,7
2018/7/2 6:19,2,6,2,6,4.2,6
2018/7/2 6:20,1.9,6,2,6,5,6
2018/7/2 6:21,2,6,2,6,5.2,5
2018/7/2 6:22,2.1,6,2.1,6,5.2,7
2018/7/2 6:23,2.2,7,2.2,6,5.4,5
2018/7/2 6:24,2.3,7,2.3,7,4.2,9
2018/7/2 6:25,2.4,7,2.4,7,4.3,7
2018/7/2 6:26,2.5,7,2.5,7,5.5,6
2018/7/2 6:27,2.7,7,2.7,7,5.7,7
2018/7/2 6:28,2.9,7,2.9,7,4.9,7
2018/7/2 6:29,2.8,7,2.9,7,3.2,6
2018/7/2 6:30,2.7,7,2.8,7,3.2,8
2018/7/2 6:31,2.6,7,2.7,7,4.2,8
2018/7/2 6:32,2.4,7,2.6,7,2.7,6
2018/7/2 6:33,2.3,7,2.4,7,2.2,7
2018/7/2 6:34,2.2,7,2.3,7,2.7,9
2018/7/2 6:35,2.3,7,2.3,7,5.4,6
2018/7/2 6:36,2.4,7,2.4,7,6.3,5
2018/7/2 6:37,2.3,7,2.4,7,4.2,6
2018/7/2 6:38,2.4,6,2.4,7,6,7
2018/7/2 6:39,2.3,7,2.4,7,5.1,7
2018/7/2 6:40,2.3,7,2.3,7,2.5,5
2018/7/2 6:41,2.2,7,2.3,7,3.7,9
2018/7/2 6:42,2.3,7,2.3,7,3.1,8
2018/7/2 6:43,2.3,7,2.3,7,2.5,7
2018/7/2 6:44,2.3,7,2.3,7,2.6,6
2018/7/2 6:45,2.1,7,2.3,7,1.9,7
2018/7/2 6:46,1.8,7,2.1,7,2.2,6
2018/7/2 6:47,1.6,7,1.8,6,1.8,6
2018/7/2 6:48,1.5,7,1.6,6,3.3,6
2018/7/2 6:49,1.4,7,1.5,7,3.6,7
2018/7/2 6:50,1.5,7,1.5,7,2.2,4
2018/7/2 6:51,1.6,6,1.6,7,4.4,6
2018/7/2 6:52,1.6,7,1.6,7,3.5,7
2018/7/2 6:53,1.8,7,1.8,7,4.9,7
2018/7/2 6:54,2,6,2,7,4.2,6
2018/7/2 6:55,2,6,2,7,3.6,6
2018/7/2 6:56,1.9,6,2,6,2,8
2018/7/2 6:57,2.1,7,2.1,7,5.2,9
2018/7/2 6:58,2.1,6,2.1,7,2.4,5
2018/7/2 6:59,2.1,6,2.1,7,2.9,5
2018/7/2 7:00,2.4,6,2.4,6,6.1,6
2018/7/2 7:01,2.4,6,2.4,6,3.6,6
2018/7/2 7:02,2.5,6,2.5,6,4.5,6
2018/7/2 7:03,2.4,6,2.5,6,2.6,6
2018/7/2 7:04,2.3,6,2.4,6,3.8,6
2018/7/2 7:05,2.3,6,2.3,6,2.5,9
2018/7/2 7:06,2.5,6,2.5,6,4.5,7
2018/7/2 7:07,2.5,6,2.6,6,4.5,6
2018/7/2 7:08,2.5,7,2.5,6,2.5,9
2018/7/2 7:09,2.3,7,2.5,6,1.5,6
2018/7/2 7:10,2.1,6,2.3,6,1.8,6
2018/7/2 7:11,2.1,6,2.1,6,4.3,6
2018/7/2 7:12,2,7,2.1,6,4.2,5
2018/7/2 7:13,2,7,2,6,2.9,6
2018/7/2 7:14,1.9,7,2,6,4.2,5
2018/7/2 7:15,1.9,6,1.9,6,3.2,7
2018/7/2 7:16,1.7,6,1.9,6,2.2,5
2018/7/2 7:17,1.7,6,1.7,6,3.8,6
2018/7/2 7:18,1.8,6,1.8,7,4.2,8
2018/7/2 7:19,1.8,6,1.8,7,2.2,10
2018/7/2 7:20,1.8,6,1.8,6,1.4,7
2018/7/2 7:21,1.7,6,1.8,6,2.9,6
2018/7/2 7:22,1.7,6,1.7,7,2.1,7
2018/7/2 7:23,1.7,7,1.7,7,3.7,6
2018/7/2 7:24,1.7,6,1.7,7,3.2,4
2018/7/2 7:25,1.9,6,1.9,6,5.1,6
2018/7/2 7:26,2,6,2,6,5.4,6
2018/7/2 7:27,2,6,2.1,6,4.4,6
2018/7/2 7:28,2,6,2,6,3.2,7
2018/7/2 7:29,2.2,6,2.2,6,3.8,6
2018/7/2 7:30,2.4,6,2.4,6,6.2,6
2018/7/2 7:31,2.6,6,2.6,6,6.3,6
2018/7/2 7:32,2.7,6,2.7,6,5,9
2018/7/2 7:33,2.8,6,2.8,6,4.9,7
2018/7/2 7:34,2.9,7,2.9,6,4.8,7
2018/7/2 7:35,2.8,7,2.9,6,3.1,5
2018/7/2 7:36,2.8,7,2.9,6,5.4,6
2018/7/2 7:37,2.8,7,2.8,6,3.7,7
2018/7/2 7:38,2.6,7,2.8,6,2.1,7
2018/7/2 7:39,2.5,7,2.6,6,2.7,8
2018/7/2 7:40,2.4,7,2.5,6,2.4,8
2018/7/2 7:41,2.2,7,2.3,6,3.5,7
2018/7/2 7:42,2.2,7,2.3,6,4.2,8
2018/7/2 7:43,2.1,7,2.2,6,3.7,7
2018/7/2 7:44,2.3,7,2.3,7,6.8,7
2018/7/2 7:45,2.6,7,2.6,7,6.5,7
2018/7/2 7:46,2.6,7,2.6,7,5.4,6
2018/7/2 7:47,2.6,7,2.6,7,2.2,6
2018/7/2 7:48,2.7,7,2.7,7,3.2,6
2018/7/2 7:49,2.7,7,2.7,7,3.6,6
2018/7/2 7:50,2.8,7,2.8,7,3.7,7
2018/7/2 7:51,2.7,7,2.8,7,5,6
2018/7/2 7:52,2.7,6,2.7,7,3.8,7
2018/7/2 7:53,2.6,6,2.7,7,2.7,6
2018/7/2 7:54,2.4,6,2.6,7,6.7,6
2018/7/2 7:55,2.4,7,2.4,7,5.7,6
2018/7/2 7:56,2.2,7,2.4,7,4.5,10
2018/7/2 7:57,2.4,7,2.4,7,4.7,5
2018/7/2 7:58,2.6,7,2.6,7,5.7,6
2018/7/2 7:59,2.8,7,2.8,7,7,6
2018/7/2 8:00,2.8,7,2.8,7,4.2,8
2018/7/2 8:01,2.8,7,2.8,7,3.7,6
2018/7/2 8:02,2.9,7,2.9,7,5,7
2018/7/2 8:03,3.2,6,3.2,6,5.8,5
2018/7/2 8:04,3.2,6,3.2,6,4.9,9
2018/7/2 8:05,3.2,6,3.2,6,5.8,9
2018/7/2 8:06,3.2,6,3.2,6,4.1,6
2018/7/2 8:07,3.2,6,3.2,6,5.5,6
2018/7/2 8:08,3.2,6,3.2,6,7.7,6
2018/7/2 8:09,3.1,6,3.2,6,7.5,5
2018/7/2 8:10,3.5,6,3.5,6,8.6,5
2018/7/2 8:11,3.7,6,3.7,6,7.5,5
2018/7/2 8:12,3.6,6,3.7,6,4.3,6
2018/7/2 8:13,3.3,6,3.6,6,2.2,7
2018/7/2 8:14,3.1,7,3.3,6,2.9,8
2018/7/2 8:15,3,6,3.1,6,4.1,5
2018/7/2 8:16,3.1,7,3.1,6,5.6,8
2018/7/2 8:17,3.1,7,3.2,6,5.2,7
2018/7/2 8:18,3.2,7,3.2,6,6.7,6
2018/7/2 8:19,3.2,7,3.2,6,4.3,7
2018/7/2 8:20,2.9,7,3.1,6,5.4,7
2018/7/2 8:21,2.6,7,2.8,6,3.8,8
2018/7/2 8:22,2.6,7,2.6,6,4.9,7
2018/7/2 8:23,2.8,7,2.8,6,7.2,6
2018/7/2 8:24,2.9,7,2.9,7,7.4,5
2018/7/2 8:25,3.2,7,3.2,7,8.4,6
2018/7/2 8:26,3.3,7,3.3,7,6.4,6
2018/7/2 8:27,3.4,7,3.4,7,8.1,8
2018/7/2 8:28,3.3,7,3.4,7,5,8
2018/7/2 8:29,3.2,7,3.2,7,4.7,7
2018/7/2 8:30,3.2,6,3.2,7,4.5,6
2018/7/2 8:31,3.3,6,3.3,7,5.4,6
2018/7/2 8:32,3.4,6,3.4,7,5.7,5
2018/7/2 8:33,3.4,6,3.5,6,3.9,7
2018/7/2 8:34,3.3,6,3.4,6,5.8,7
2018/7/2 8:35,3.3,6,3.3,6,8.7,6
2018/7/2 8:36,3.4,6,3.4,6,7.2,5
2018/7/2 8:37,3.2,6,3.4,6,3.7,6
2018/7/2 8:38,3.2,6,3.2,6,3.8,7
2018/7/2 8:39,3.2,6,3.3,6,5,6
2018/7/2 8:40,3.1,6,3.2,6,3.5,5
2018/7/2 8:41,3.2,6,3.2,6,5.7,5
2018/7/2 8:42,3.3,6,3.3,6,6.5,5
2018/7/2 8:43,3.2,6,3.3,6,5.6,5
2018/7/2 8:44,3.3,6,3.3,6,5,8
2018/7/2 8:45,2.9,6,3.3,6,4.9,6
2018/7/2 8:46,2.8,6,2.9,6,5.2,7
2018/7/2 8:47,2.8,6,2.8,6,5.6,5
2018/7/2 8:48,2.7,6,2.8,6,6.2,6
2018/7/2 8:49,2.7,6,2.8,6,4.7,9
2018/7/2 8:50,2.8,6,2.8,6,6.2,8
2018/7/2 8:51,2.8,7,2.8,6,6.2,8
2018/7/2 8:52,2.8,7,2.8,6,5.8,7
2018/7/2 8:53,2.8,7,2.8,6,4.9,8
2018/7/2 8:54,2.6,7,2.7,6,3.3,7
2018/7/2 8:55,2.6,7,2.6,6,3.1,8
2018/7/2 8:56,2.3,7,2.6,6,1.3,7
2018/7/2 8:57,2.3,7,2.4,6,3.2,7
2018/7/2 8:58,2.3,8,2.3,6,4.1,8
2018/7/2 8:59,2.4,8,2.4,6,6,8
2018/7/2 9:00,2.3,8,2.4,6,3.1,9
2018/7/2 9:01,2.2,8,2.3,7,4.7,8
2018/7/2 9:02,2.1,8,2.2,7,5.2,8
2018/7/2 9:03,2.1,8,2.1,7,3.9,8
2018/7/2 9:04,2.1,8,2.1,7,2.7,6
2018/7/2 9:05,2.2,8,2.2,7,4.9,7
2018/7/2 9:06,2.4,8,2.4,7,3.8,9
2018/7/2 9:07,2.6,8,2.6,8,4.8,7
2018/7/2 9:08,2.7,8,2.7,8,8.4,9
2018/7/2 9:09,2.7,8,2.8,8,6.5,7
2018/7/2 9:10,2.8,8,2.8,8,4.7,7
2018/7/2 9:11,3.1,8,3.1,8,8.1,6
2018/7/2 9:12,3.2,8,3.2,8,5.7,7
2018/7/2 9:13,3.3,8,3.3,8,6,8
2018/7/2 9:14,3.6,7,3.6,7,7.6,7
2018/7/2 9:15,3.7,8,3.7,7,7.7,9
2018/7/2 9:16,3.9,7,3.9,7,8.3,6
2018/7/2 9:17,4.1,7,4.1,7,9.4,7
2018/7/2 9:18,4.2,7,4.3,7,9.8,9
2018/7/2 9:19,4.3,7,4.3,7,7.9,5
2018/7/2 9:20,4.5,7,4.5,7,6.8,7
2018/7/2 9:21,4.3,7,4.5,7,3.9,6
2018/7/2 9:22,4.2,7,4.3,7,5.1,8
2018/7/2 9:23,4.2,7,4.2,7,5.5,8
2018/7/2 9:24,4,7,4.2,7,4.4,7
2018/7/2 9:25,3.9,7,4,7,5.1,7
2018/7/2 9:26,3.7,7,3.9,7,4.1,7
2018/7/2 9:27,3.5,7,3.7,7,6,8
2018/7/2 9:28,3.3,7,3.4,7,6.1,7
2018/7/2 9:29,3.2,7,3.2,7,5.6,10
2018/7/2 9:30,3.1,7,3.2,7,6.3,5
2018/7/2 9:31,3.2,7,3.2,7,6.4,6
2018/7/2 9:32,3.1,7,3.3,7,6,7
2018/7/2 9:33,3,7,3.1,7,4.7,7
2018/7/2 9:34,3,7,3,7,4.5,5
2018/7/2 9:35,3,7,3,7,4.9,6
2018/7/2 9:36,3.2,7,3.2,7,10.1,7
2018/7/2 9:37,3.6,7,3.6,7,9.7,7
2018/7/2 9:38,3.7,7,3.7,7,8.5,9
2018/7/2 9:39,3.9,7,3.9,7,11.4,7
2018/7/2 9:40,4.2,7,4.2,7,8.7,7
2018/7/2 9:41,4.3,7,4.3,7,8.5,7
2018/7/2 9:42,4.5,7,4.5,7,6.2,8
2018/7/2 9:43,4.7,7,4.7,7,8.4,8
2018/7/2 9:44,4.9,7,4.9,7,7,8
2018/7/2 9:45,5.1,7,5.1,7,9,7
2018/7/2 9:46,5.1,7,5.2,7,8.3,7
2018/7/2 9:47,5,7,5.1,7,10.5,8
2018/7/2 9:48,5.2,7,5.2,7,10,8
2018/7/2 9:49,5,7,5.2,7,7.6,8
2018/7/2 9:50,4.9,7,5,7,10.2,8
2018/7/2 9:51,4.9,8,5,7,9.7,8
2018/7/2 9:52,5,8,5,7,7.8,8
2018/7/2 9:53,5,8,5.1,7,8.1,9
2018/7/2 9:54,5.1,8,5.1,7,7.7,7
2018/7/2 9:55,4.9,8,5.1,7,6.7,8
2018/7/2 9:56,4.9,8,4.9,7,7.2,7
2018/7/2 9:57,4.9,8,5,7,7.4,8
2018/7/2 9:58,4.6,8,4.9,7,5.2,8
2018/7/2 9:59,4.5,8,4.6,8,6.5,7
2018/7/2 10:00,4.3,8,4.5,8,5.8,8
2018/7/2 10:01,4.1,8,4.3,8,4.5,8
2018/7/2 10:02,3.8,8,4,8,2.5,8
2018/7/2 10:03,3.4,8,3.7,8,3.5,8
2018/7/2 10:04,3.1,8,3.3,8,3.8,8
2018/7/2 10:05,2.9,8,3,8,5.4,7
2018/7/2 10:06,2.7,8,2.9,8,6.8,6
2018/7/2 10:07,2.4,8,2.7,8,3.3,8
2018/7/2 10:08,2.4,8,2.4,8,3.9,9
2018/7/2 10:09,2.5,7,2.5,8,7.1,6
2018/7/2 10:10,2.4,7,2.5,8,7,6
2018/7/2 10:11,2.7,7,2.7,8,9.2,8
2018/7/2 10:12,3.2,7,3.2,8,9.1,8
2018/7/2 10:13,3.4,7,3.4,7,6,8
2018/7/2 10:14,3.7,7,3.7,7,8.7,5
2018/7/2 10:15,3.8,7,3.9,7,7.5,5
2018/7/2 10:16,4,7,4,7,8.9,6
2018/7/2 10:17,4.3,7,4.3,7,8.9,6
2018/7/2 10:18,4.3,7,4.3,7,4.2,5
2018/7/2 10:19,4.4,7,4.4,7,7.9,8
2018/7/2 10:20,4.5,7,4.5,7,7,8
2018/7/2 10:21,4.4,7,4.5,7,6.3,8
2018/7/2 10:22,4.3,7,4.4,7,6.7,7
2018/7/2 10:23,4.2,7,4.3,7,5.7,6
2018/7/2 10:24,4.1,7,4.2,7,6.5,7
2018/7/2 10:25,4,7,4.1,7,5.7,6
2018/7/2 10:26,3.9,7,4,7,5.1,8
2018/7/2 10:27,3.6,7,3.8,7,4.2,7
2018/7/2 10:28,3.5,7,3.5,7,3.7,7
2018/7/2 10:29,3.4,7,3.6,7,7.7,8
2018/7/2 10:30,3.3,7,3.4,7,6.4,7
2018/7/2 10:31,3.3,7,3.3,7,6.4,8
2018/7/2 10:32,3.2,7,3.3,7,5.4,8
2018/7/2 10:33,3.1,7,3.2,7,4.3,8
2018/7/2 10:34,2.9,8,3.1,7,3.6,8
2018/7/2 10:35,2.8,8,2.9,7,2.9,6
2018/7/2 10:36,2.7,8,2.8,7,3,8
2018/7/2 10:37,2.9,7,2.9,7,8.2,8
2018/7/2 10:38,3,7,3,7,6.8,7
2018/7/2 10:39,2.9,7,3,7,5.5,9
2018/7/2 10:40,2.9,7,2.9,7,6.9,8
2018/7/2 10:41,3,7,3,7,8.3,8
2018/7/2 10:42,3.2,8,3.2,7,7.6,8
2018/7/2 10:43,3.3,7,3.3,8,6.4,8
2018/7/2 10:44,3.4,7,3.4,7,6.5,8
2018/7/2 10:45,3.6,7,3.6,7,5.1,6
2018/7/2 10:46,3.6,7,3.6,7,5.4,5
2018/7/2 10:47,3.6,7,3.7,7,5.8,8
2018/7/2 10:48,3.6,7,3.6,7,8.7,8
2018/7/2 10:49,3.5,7,3.6,7,5.1,6
2018/7/2 10:50,3.4,7,3.6,7,5,5
2018/7/2 10:51,3.3,7,3.4,7,5.7,6
2018/7/2 10:52,3.2,7,3.2,7,7,8
2018/7/2 10:53,3.1,7,3.2,7,6.5,8
2018/7/2 10:54,3.1,7,3.2,7,5.2,6
2018/7/2 10:55,3,8,3.1,7,5.5,9
2018/7/2 10:56,3.1,8,3.2,7,6.2,8
2018/7/2 10:57,3.1,8,3.1,7,6.2,8
2018/7/2 10:58,3.1,8,3.1,7,4.5,7
2018/7/2 10:59,3.1,8,3.2,7,4.1,7
2018/7/2 11:00,3.2,8,3.2,7,5.6,6
2018/7/2 11:01,3.3,8,3.3,8,5.6,7
2018/7/2 11:02,3.2,7,3.3,8,4.5,8
2018/7/2 11:03,3.2,8,3.2,8,8.6,8
2018/7/2 11:04,3.4,8,3.4,8,9.2,6
2018/7/2 11:05,3.6,7,3.6,7,7.1,6
2018/7/2 11:06,3.6,7,3.6,7,7.5,7
2018/7/2 11:07,3.6,7,3.7,7,7,8
2018/7/2 11:08,3.7,8,3.7,7,7.4,8
2018/7/2 11:09,3.7,8,3.7,7,6.3,8
2018/7/2 11:10,3.7,8,3.7,7,5.5,8
2018/7/2 11:11,3.7,8,3.7,7,5.6,6
2018/7/2 11:12,3.9,8,3.9,8,7.5,7
2018/7/2 11:13,3.9,7,3.9,8,7.6,8
2018/7/2 11:14,4.1,8,4.1,7,7.9,8
2018/7/2 11:15,4,8,4.1,7,6.5,8
2018/7/2 11:16,4.1,8,4.1,7,7.4,8
2018/7/2 11:17,4.3,8,4.3,8,8.7,6
2018/7/2 11:18,4.3,8,4.4,8,8.1,8
2018/7/2 11:19,4.4,8,4.4,8,9.4,8
2018/7/2 11:20,4.6,8,4.6,8,7.7,8
2018/7/2 11:21,4.4,8,4.5,8,4.4,7
2018/7/2 11:22,4.3,8,4.4,8,5.5,7
2018/7/2 11:23,4.2,8,4.3,8,4.9,7
2018/7/2 11:24,3.9,8,4.2,8,4.4,8
2018/7/2 11:25,3.8,8,3.8,8,7.4,7
2018/7/2 11:26,3.5,8,3.8,8,4.9,7
2018/7/2 11:27,3.2,8,3.5,8,3.9,6
2018/7/2 11:28,3.3,7,3.3,8,6,6
2018/7/2 11:29,3.1,7,3.3,8,5.2,6
2018/7/2 11:30,2.9,7,3.1,8,5.4,7
2018/7/2 11:31,3.1,7,3.1,8,6.4,9
2018/7/2 11:32,3.1,7,3.1,8,6.4,8
2018/7/2 11:33,3.1,7,3.1,8,5,8
2018/7/2 11:34,3.3,7,3.3,8,8.6,7
2018/7/2 11:35,3.4,7,3.4,8,7.7,7
2018/7/2 11:36,3.5,7,3.5,8,5.8,7
2018/7/2 11:37,3.8,7,3.8,7,7.8,6
2018/7/2 11:38,3.5,7,3.8,7,3,6
2018/7/2 11:39,3.5,7,3.6,7,4.9,8
2018/7/2 11:40,3.5,7,3.5,7,6.8,8
2018/7/2 11:41,3.7,7,3.7,7,8.7,7
2018/7/2 11:42,3.8,7,3.8,7,8.3,8
2018/7/2 11:43,4,7,4,7,7,8
2018/7/2 11:44,3.8,7,4,7,5.5,7
2018/7/2 11:45,3.8,7,3.8,7,5.4,7
2018/7/2 11:46,3.7,7,3.8,7,5,8
2018/7/2 11:47,3.6,7,3.7,7,7.1,6
2018/7/2 11:48,3.7,7,3.7,7,5.2,6
2018/7/2 11:49,4,7,4,7,8.4,6
2018/7/2 11:50,4.3,7,4.3,7,8.9,6
2018/7/2 11:51,4.2,7,4.3,7,7.5,6
2018/7/2 11:52,3.8,7,4.2,7,3.9,7
2018/7/2 11:53,3.5,7,3.7,7,5.1,8
2018/7/2 11:54,3.4,7,3.5,7,3.8,7
2018/7/2 11:55,3.4,7,3.5,7,6.9,6
2018/7/2 11:56,3.5,7,3.5,7,5.5,6
2018/7/2 11:57,3.5,7,3.5,7,6.3,6
2018/7/2 11:58,3.6,7,3.6,7,6.1,6
2018/7/2 11:59,3.4,7,3.6,7,5,6
2018/7/2 12:00,3,7,3.3,7,5.2,6
2018/7/2 12:01,2.9,7,3,7,4.8,5
2018/7/2 12:02,3.2,7,3.2,7,6.9,9
2018/7/2 12:03,3.4,7,3.4,7,6.1,8
2018/7/2 12:04,3.5,7,3.5,7,4.5,8
2018/7/2 12:05,3.3,7,3.4,7,3.9,6
2018/7/2 12:06,3.3,7,3.3,7,5.5,7
2018/7/2 12:07,3.4,7,3.4,7,7.8,8
2018/7/2 12:08,3.3,7,3.4,7,6.4,8